Flag for Russia Weather past 2 weeks in Astrakhan, Russia

Now
81 °F

Clear.


Feels Like: 80 °F
Forecast: 70 / 93 °F
Wind: 6 mph from North

Location: Astrakhan

Current Time: Jul 2, 2015 at 10:07:55 PM

Latest Report: Jul 2, 2015 at 9:30 PM


Visibility: 10 mi

Pressure: 29.98 "Hg

Humidity: 32%

Dew point: 48 °F

Location of AstrakhanLocation

Historic Weather in Astrakhan — Graph

°F

Astrakhan temperature yesterday

Maximum temperature yesterday: 90 °F (at 2:00 PM)
Minimum temperature yesterday: 70 °F (at 6:30 AM)
Average temperature yesterday: 81 °F

Past Weeks' High & Low Weather Summary

 TemperatureHumidityPressure
High106 °F (Jun 23, 11:30 AM)83% (Jun 20, 2:30 AM)30.04 "Hg (Jun 20, 2:30 AM)
Low68 °F (Jun 19, 3:30 AM)11% (Jun 19, 12:30 PM)29.53 "Hg (Jun 26, 2:30 PM)
Average87 °F39%29.73 "Hg
* Reported Jun 17 8:00 PM — Jul 2 8:30 PM, Astrakhan, Weather by CustomWeather, © 2015

Note: Actual official high and low records may vary slightly from our data, if they occured in-between our weather recording intervals... More about our weather records

Advertising

Astrakhan weather history for previous 24 hours

 ConditionsComfort  
Time TempWeatherWind HumidityBarometerVisibility
8:30 PM
Thu, Jul 2
82 °FSunny.3 mph32%29.98 "Hg10 mi
8:00 PM84 °FSunny.3 mph31%29.98 "Hg10 mi
7:30 PM84 °FSunny.6 mph31%29.98 "Hg10 mi
7:00 PM86 °FPassing clouds.6 mph29%29.98 "HgN/A
6:30 PM88 °FPassing clouds.8 mph25%29.98 "HgN/A
6:00 PM88 °FSunny.8 mph27%29.98 "Hg10 mi
5:30 PM90 °FScattered clouds.10 mph24%29.95 "HgN/A
5:00 PM90 °FScattered clouds.8 mph26%29.95 "HgN/A
4:30 PM91 °FScattered clouds.8 mph24%29.95 "HgN/A
4:00 PM90 °FScattered clouds.13 mph26%29.98 "HgN/A
3:30 PM91 °FPartly sunny.10 mph26%29.98 "HgN/A
3:00 PM91 °FPartly sunny.8 mph24%29.98 "HgN/A
2:30 PM91 °FPartly sunny.8 mph23%29.98 "HgN/A
2:00 PM91 °FPartly sunny.8 mph23%29.98 "HgN/A
1:30 PM91 °FPartly sunny.8 mph23%29.98 "HgN/A
1:00 PM90 °FPartly sunny.8 mph26%29.98 "HgN/A
12:30 PM91 °FPartly sunny.10 mph24%29.98 "HgN/A
12:00 PM91 °FScattered clouds.8 mph24%30.01 "HgN/A
11:30 AM90 °FScattered clouds.10 mph26%30.01 "HgN/A
11:00 AM90 °FScattered clouds.10 mph26%30.01 "HgN/A
10:30 AM88 °FScattered clouds.10 mph29%30.01 "HgN/A
10:00 AM88 °FClear.13 mph29%30.04 "HgN/A
9:30 AM86 °FPassing clouds.10 mph31%30.04 "HgN/A
9:00 AM84 °FPassing clouds.8 mph35%30.04 "HgN/A
8:30 AM84 °FPassing clouds.10 mph35%30.04 "HgN/A
8:00 AM84 °FPassing clouds.8 mph37%30.04 "HgN/A
7:30 AM81 °FSunny.8 mph45%30.04 "Hg10 mi
7:00 AM79 °FSunny.8 mph51%30.04 "Hg10 mi
6:30 AM77 °FSunny.8 mph54%30.04 "Hg10 mi
6:00 AM73 °FSunny.8 mph61%30.01 "Hg10 mi
5:30 AM72 °FSunny.8 mph61%30.01 "Hg10 mi
5:00 AM70 °FSunny.6 mph64%30.01 "Hg10 mi
4:30 AM70 °FClear.6 mph64%30.01 "Hg10 mi
4:00 AM68 °FClear.6 mph64%30.01 "Hg10 mi
3:30 AM70 °FClear.6 mph60%30.01 "Hg10 mi
3:00 AM70 °FClear.6 mph60%30.01 "Hg10 mi
2:30 AM72 °FClear.8 mph57%30.01 "Hg10 mi
2:00 AM72 °FClear.6 mph57%30.01 "Hg10 mi
1:30 AM72 °FClear.8 mph57%30.01 "Hg10 mi
1:00 AM72 °FClear.8 mph57%30.01 "Hg10 mi
12:30 AM73 °FClear.8 mph53%30.01 "Hg10 mi
12:00 AM75 °FClear.8 mph50%30.01 "Hg10 mi
11:30 PM
Wed, Jul 1
77 °FClear.6 mph44%30.01 "Hg10 mi
11:00 PM77 °FClear.6 mph44%30.01 "Hg10 mi
10:30 PM77 °FClear.6 mph44%30.01 "Hg10 mi
10:00 PM75 °FClear.6 mph47%30.01 "Hg10 mi
Weather by CustomWeather, © 2015

See weather overviewHow to use our weather pages